Location: Cazavet
(43.0017°N, 1.0431°E)
Time: 21:35:12
(UTC+00:00)

CENTAUR R/B - Pass Details

Date: 18 January 2026
Orbit: 629 x 1551 km, 63.4° (Epoch: 10 February)

Event Time Altitude Azimuth Distance (km) Brightness Sun altitude
Rises 05:18:20 0° 190° (S) 3,103 5.1 -22.4°
Reaches altitude 10° 05:20:36 10° 182° (S) 2,275 4.5 -22.0°
Maximum altitude 05:25:26 40° 114° (ESE) 1,260 3.6 -21.1°
Drops below altitude 10° 05:31:21 10° 47° (NE) 2,808 5.4 -20.1°
Sets 05:34:26 0° 41° (NE) 3,925 6.1 -19.5°
